TimeCST,TemperatureF,Dew PointF,Humidity,Sea Level PressureIn,VisibilityMPH,Wind Direction,Wind SpeedMPH,Gust SpeedMPH,PrecipitationIn,Events,Conditions,WindDirDegrees,DateUTC
12:35 AM,66.2,62.6,88,29.55,2.0,West,28.8,49.5,0.15,Rain,Heavy Rain,260,2013-01-30 06:35:00
12:39 AM,64.4,60.8,88,29.53,1.2,WSW,20.7,49.5,0.24,Rain-Thunderstorm,Heavy Rain,240,2013-01-30 06:39:00
12:49 AM,62.6,60.8,94,29.51,1.0,WSW,19.6,36.8,0.56,Rain-Thunderstorm,Heavy Rain,240,2013-01-30 06:49:00
12:53 AM,63.0,61.0,93,29.51,1.2,SW,17.3,27.6,0.60,Rain-Thunderstorm,Heavy Rain,230,2013-01-30 06:53:00
1:01 AM,60.8,60.8,100,29.54,1.2,NW,35.7,47.2,0.32,Rain-Thunderstorm,Heavy Rain,320,2013-01-30 07:01:00
1:04 AM,57.2,55.4,94,29.55,0.8,NW,33.4,49.5,0.52,Rain,Heavy Rain,320,2013-01-30 07:04:00
1:09 AM,55.4,53.6,94,29.56,0.8,NW,27.6,49.5,0.70,Rain-Thunderstorm,Heavy Rain,320,2013-01-30 07:09:00
1:14 AM,55.4,53.6,94,29.60,1.0,NW,20.7,44.9,0.87,Rain-Thunderstorm,Heavy Rain,310,2013-01-30 07:14:00
1:24 AM,55.4,53.6,94,29.59,1.8,NW,17.3,28.8,1.07,Rain,Heavy Rain,320,2013-01-30 07:24:00
1:28 AM,55.4,53.6,94,29.59,3.0,NW,15.0,27.6,1.08,Rain,Rain,320,2013-01-30 07:28:00
1:37 AM,55.4,53.6,94,29.58,7.0,NNW,18.4,24.2,1.11,Rain,Rain,330,2013-01-30 07:37:00
1:53 AM,55.0,53.1,93,29.58,8.0,NW,9.2,-,1.16,Rain,Rain,320,2013-01-30 07:53:00
2:53 AM,54.0,53.1,97,29.59,6.0,WNW,3.5,-,0.17,Rain,Rain,300,2013-01-30 08:53:00
3:53 AM,54.0,53.1,97,29.60,9.0,South,4.6,-,0.14,Rain,Rain,180,2013-01-30 09:53:00
4:53 AM,54.0,53.1,97,29.57,7.0,SSE,3.5,-,0.12,Rain,Rain,160,2013-01-30 10:53:00
5:53 AM,53.1,51.1,93,29.55,10.0,South,6.9,-,0.04,,Overcast,180,2013-01-30 11:53:00
6:53 AM,53.1,51.1,93,29.54,10.0,South,8.1,-,N/A,,Mostly Cloudy,190,2013-01-30 12:53:00
7:53 AM,54.0,51.1,90,29.55,10.0,South,9.2,-,N/A,,Mostly Cloudy,180,2013-01-30 13:53:00
8:53 AM,55.9,52.0,87,29.55,10.0,SW,12.7,-,N/A,,Mostly Cloudy,230,2013-01-30 14:53:00
9:53 AM,55.9,50.0,80,29.56,10.0,SW,16.1,20.7,N/A,,Overcast,220,2013-01-30 15:53:00
10:30 AM,55.4,50.0,82,29.55,10.0,SW,15.0,-,N/A,,Overcast,230,2013-01-30 16:30:00
10:53 AM,55.9,48.9,77,29.54,10.0,SW,17.3,-,N/A,,Overcast,230,2013-01-30 16:53:00
11:21 AM,55.4,48.2,77,29.56,10.0,SW,13.8,24.2,N/A,,Overcast,230,2013-01-30 17:21:00
11:53 AM,55.9,46.0,69,29.54,10.0,West,17.3,24.2,N/A,,Overcast,260,2013-01-30 17:53:00
12:53 PM,54.0,43.0,66,29.55,10.0,WSW,18.4,28.8,N/A,,Overcast,250,2013-01-30 18:53:00
1:53 PM,50.0,42.1,74,29.57,10.0,WNW,13.8,34.5,0.01,Rain,Light Rain,290,2013-01-30 19:53:00
2:08 PM,48.2,39.2,71,29.58,10.0,WNW,21.9,36.8,0.00,,Overcast,290,2013-01-30 20:08:00
2:53 PM,44.1,37.9,79,29.63,8.0,West,19.6,33.4,0.00,Rain,Light Rain,280,2013-01-30 20:53:00
3:13 PM,42.8,35.6,76,29.65,10.0,West,19.6,27.6,0.00,Rain,Light Rain,280,2013-01-30 21:13:00
3:53 PM,44.1,33.1,65,29.68,10.0,West,23.0,32.2,0.00,,Overcast,280,2013-01-30 21:53:00
4:53 PM,43.0,30.9,62,29.72,10.0,West,21.9,31.1,N/A,,Overcast,280,2013-01-30 22:53:00
5:53 PM,39.0,26.1,60,29.78,10.0,WNW,21.9,35.7,N/A,,Mostly Cloudy,290,2013-01-30 23:53:00
6:53 PM,39.0,25.0,57,29.84,10.0,WNW,20.7,31.1,N/A,,Overcast,300,2013-01-31 00:53:00
7:53 PM,37.0,25.0,62,29.88,10.0,WNW,16.1,25.3,N/A,,Overcast,290,2013-01-31 01:53:00
8:53 PM,37.0,26.1,65,29.93,10.0,WNW,12.7,28.8,N/A,,Overcast,290,2013-01-31 02:53:00
9:53 PM,36.0,25.0,64,29.96,10.0,West,20.7,29.9,N/A,,Overcast,280,2013-01-31 03:53:00
10:53 PM,35.1,23.0,61,30.00,10.0,West,15.0,24.2,N/A,,Overcast,280,2013-01-31 04:53:00
11:53 PM,34.0,21.9,61,30.02,10.0,WNW,19.6,29.9,N/A,,Overcast,300,2013-01-31 05:53:00